Parc national de Yoho, Colombie-Britannique

Conditions des dernières 24 heures

Ce tableau est un sommaire des conditions météo couvrant les dernières 24 heures. Ce sommaire inclut les paramètres suivants: température, humidité, point de rosée, direction et vitesse du vent, pression barométrique, facteur de refroidissement éolien ou indice humidex.
Date / Heure
(HAR)
Conditions Temp (°C) Humidite (%) Point de rose (°C) Vent (km/h) Pression (kPa) Visibilité (km)
30 septembre 2014
21:00 N.D. 2   95 1 NNO 4 101,4 N.D.
20:00 N.D. 2   94 1 O 4 101,4 N.D.
19:00 N.D. 4 89 2 SO 12 101,3 N.D.
18:00 N.D. 5 92 4 O 25 rafale 44 101,2 N.D.
17:00 N.D. 5 89 4 ESE 2 101,1 N.D.
16:00 N.D. 8 69 3 NE 9 101,0 N.D.
15:00 N.D. 7 82 4 ENE 11 101,0 N.D.
14:00 N.D. 7 80 4 OSO 6 100,9 N.D.
13:00 N.D. 7 85 4 O 16 rafale 33 100,8 N.D.
12:00 N.D. 7 94 6 OSO 17 100,8 N.D.
11:00 N.D. 6 96 6 O 13 100,8 N.D.
10:00 N.D. 6 98 5 OSO 13 100,7 N.D.
9:00 N.D. 5 99 5 OSO 16 100,7 N.D.
8:00 N.D. 6 99 5 OSO 22 100,6 N.D.
7:00 N.D. 5 99 5 SO 12 100,6 N.D.
6:00 N.D. 5 99 5 SO 9 100,6 N.D.
5:00 N.D. 6 99 5 OSO 13 100,5 N.D.
4:00 N.D. 6 98 5 OSO 11 100,5 N.D.
3:00 N.D. 6 98 6 NO 2 100,6 N.D.
2:00 N.D. 8 90 6 O 24 100,4 N.D.
1:00 N.D. 8 92 6 OSO 13 100,4 N.D.
0:00 N.D. 8 91 7 O 15 100,5 N.D.
29 septembre 2014
23:00 N.D. 8 91 7 O 18 100,5 N.D.
22:00 N.D. 8 88 7 OSO 14 100,6 N.D.
21:00 N.D. 9   86 7 OSO 15 100,6 N.D.
N.D.
non disponible
 ↑ 
température la plus haute
 ↓ 
température la plus basse

Si vous désirez plus de données historiques sur les conditions météo, s.v.p. visitez Données climatologiques en ligne.